Kezdőlap
METAR-TAF:

METAR-TAF

Repülőterek :

Keokuk Municipal Airport

Keokuk, Iowa, Amerikai Egyesült Államok

földrajzi szélesség: 40-28N, földrajzi hosszúság: 091-26W, magasság: 205 m

Jelenlegi meteorológiai megfigyelések

A jelentés 24 perccel ezelõtt készült, 09:35 UTC
Északi szél 4 kt
Hőmérséklet 0°C
Páratartalom 93%
Légköri nyomás 1016 hPa
Látótávolság: 16.1 km
Szórványos felhőzet 10000 lábon

METAR: KEOK 130935Z AUTO 35004KT 10SM SCT100 00/M01 A2999 RMK AO2

Idő: 03:59 (09:59 UTC)


TAF: hiányzik

Meteorológiai megfigyelések és előrejelzések több, mint 4000 repülőtéren (METAR és TAF jelentéseket).

A térképen piros és sárga pontok jelzik az elérhető meteorológiai állomásokat.

Mozgassa az egeret a pont fölött, hogy megjelenjen az állomás neve.

Azután kattintson az időjárási megfigyelések és előrejelzések megtekintéséhez.

A térkép megváltoztatása: kattintson a fekete keresztel jelölt zöld gombra ráközelítéshez, a vonallal jelölt zöld gombra távolításhoz, vagy a zöld nyilakra a szomszédos térképek eléréséhez.


METAR-TAF: